Klawock, AK

2:36 PM AKST on February 25, 2017 (GMT -0900)
Klawock

Weather History for PAKW - January, 2013

Change the Weather History Date:

Wednesday, January 23, 2013

  Actual Average Record
Temperature  
Mean Temperature 41 °F -  
Max Temperature 43 °F 37 °F 50 °F (2012)
Min Temperature 39 °F 29 °F 14 °F (1999)
Degree Days  
Heating Degree Days 24    
Moisture  
Dew Point 37 °F    
Average Humidity 88    
Maximum Humidity 100    
Minimum Humidity 71    
Precipitation  
Precipitation 0.10 in - - ()
Sea Level Pressure  
Sea Level Pressure 29.66 in    
Wind  
Wind Speed 2 mph (South)    
Max Wind Speed 6 mph    
Max Gust Speed -    
Visibility 10 miles    
Events Rain    
Averages and records for this station are not official NWS values.
T = Trace of Precipitation, MM = Missing Value Source: NWS Daily Summary

Daily Weather History Graph

Daily Weather History Graph

Search for Another Location

Airport or City:

Trip Planner

Search our weather history database for the weather conditions in past years. The results will help you decide how hot, cold, wet, or windy it might be!

Date:

Astronomy

Jan. 23, 2013 Rise Set
Actual Time 7:59 AM AKST 4:09 PM AKST
Civil Twilight 7:17 AM AKST 4:51 PM AKST
Nautical Twilight 6:32 AM AKST 5:37 PM AKST
Astronomical Twilight 5:48 AM AKST 6:20 PM AKST
Moon 1:16 PM AKST (1/23) 5:26 AM AKST (1/23)
Length of Visible Light 9h 33m
Length of Day
8h 09m
Waxing Gibbous, 90% of the Moon is Illuminated
Jan 23
Waxing Gibbous
Jan 26
Full
Feb 3
Last Quarter
Feb 9
New
Feb 17
First Quarter

Hourly Weather History & Observations

Time (AKST) Temp. Windchill Dew Point Humidity Pressure Visibility Wind Dir Wind Speed Gust Speed Precip Events Conditions
12:44 AM 39.2 °F - 37.4 °F 93% 29.62 in 10.0 mi Calm Calm - 0.01 in   Overcast
12:53 AM 41.0 °F - 37.0 °F 86% 29.62 in 10.0 mi Calm Calm - 0.01 in   Overcast
1:32 AM 39.2 °F - 37.4 °F 93% 29.62 in 10.0 mi Calm Calm - 0.00 in   Overcast
1:53 AM 39.9 °F - 37.9 °F 93% 29.62 in 10.0 mi Calm Calm - 0.00 in Rain Light Rain
3:33 AM 39.2 °F 37.0 °F 39.2 °F 100% 29.63 in 10.0 mi SW 3.5 mph - 0.01 in   Overcast
3:53 AM 39.9 °F - 39.0 °F 97% 29.63 in 10.0 mi Calm Calm - 0.01 in   Overcast
4:04 AM 39.2 °F - 39.2 °F 100% 29.63 in 10.0 mi Calm Calm - N/A   Overcast
4:53 AM 39.9 °F - 37.9 °F 93% 29.63 in 5.0 mi Calm Calm - 0.01 in Rain Light Rain
5:38 AM 39.2 °F 37.0 °F 37.4 °F 93% 29.63 in 9.0 mi Variable 3.5 mph - 0.00 in   Overcast
5:46 AM 39.2 °F - 37.4 °F 93% 29.63 in 10.0 mi Calm Calm - 0.00 in   Overcast
5:53 AM 39.9 °F - 37.9 °F 93% 29.64 in 10.0 mi Calm Calm - 0.00 in   Overcast
6:19 AM 41.0 °F 37.1 °F 37.4 °F 87% 29.63 in 10.0 mi Variable 5.8 mph - N/A   Overcast
6:53 AM 41.0 °F 39.0 °F 37.0 °F 86% 29.64 in 10.0 mi Variable 3.5 mph - N/A   Overcast
7:37 AM 39.2 °F - 37.4 °F 93% 29.64 in 10.0 mi Calm Calm - 0.00 in   Overcast
7:53 AM 41.0 °F - 37.0 °F 86% 29.65 in 10.0 mi Calm Calm - 0.01 in Rain Light Rain
8:53 AM 39.9 °F 37.8 °F 36.0 °F 86% 29.65 in 10.0 mi South 3.5 mph - 0.00 in   Overcast
9:53 AM 42.1 °F 40.2 °F 35.1 °F 76% 29.66 in 10.0 mi Variable 3.5 mph - N/A   Overcast
10:53 AM 42.1 °F 39.2 °F 35.1 °F 76% 29.66 in 10.0 mi South 4.6 mph - N/A   Overcast
11:53 AM 43.0 °F 39.5 °F 34.0 °F 71% 29.65 in 10.0 mi Variable 5.8 mph - N/A   Overcast
12:53 PM 42.1 °F 40.2 °F 36.0 °F 79% 29.64 in 10.0 mi Variable 3.5 mph - 0.00 in Rain Light Rain
1:53 PM 41.0 °F 37.1 °F 37.0 °F 86% 29.65 in 10.0 mi Variable 5.8 mph - 0.01 in Rain Light Rain
2:53 PM 39.9 °F 36.7 °F 37.0 °F 89% 29.65 in 8.0 mi Variable 4.6 mph - 0.02 in Rain Light Rain
3:12 PM 39.2 °F 35.9 °F 37.4 °F 93% 29.65 in 10.0 mi Variable 4.6 mph - 0.00 in Rain Light Rain
3:53 PM 39.9 °F 35.8 °F 37.0 °F 89% 29.65 in 10.0 mi Variable 5.8 mph - 0.01 in Rain Light Rain
4:53 PM 39.9 °F 37.8 °F 36.0 °F 86% 29.67 in 10.0 mi Variable 3.5 mph - 0.01 in Rain Light Rain
5:17 PM 39.2 °F - 35.6 °F 87% 29.67 in 10.0 mi Calm Calm - 0.00 in   Overcast
5:39 PM 39.2 °F 35.9 °F 35.6 °F 87% 29.67 in 10.0 mi Variable 4.6 mph - 0.00 in   Overcast
5:53 PM 39.9 °F 37.8 °F 36.0 °F 86% 29.68 in 10.0 mi Variable 3.5 mph - 0.00 in Rain Light Rain
6:53 PM 39.9 °F - 37.0 °F 89% 29.69 in 9.0 mi Calm Calm - 0.00 in Rain Light Rain
7:24 PM 39.2 °F 35.9 °F 37.4 °F 93% 29.70 in 10.0 mi Variable 4.6 mph - 0.01 in Rain Light Rain
7:53 PM 39.9 °F 37.8 °F 37.0 °F 89% 29.71 in 10.0 mi South 3.5 mph - 0.01 in   Overcast
8:17 PM 39.2 °F 35.9 °F 37.4 °F 93% 29.71 in 10.0 mi South 4.6 mph - N/A   Overcast
8:53 PM 39.9 °F 37.8 °F 36.0 °F 86% 29.73 in 10.0 mi Variable 3.5 mph - 0.00 in Rain Light Rain
9:53 PM 39.9 °F 36.7 °F 36.0 °F 86% 29.74 in 10.0 mi Variable 4.6 mph - 0.00 in   Overcast
10:30 PM 39.2 °F 35.9 °F 35.6 °F 87% 29.74 in 10.0 mi SSE 4.6 mph - 0.00 in   Overcast
10:53 PM 39.9 °F 37.8 °F 35.1 °F 83% 29.75 in 10.0 mi Variable 3.5 mph - 0.00 in   Mostly Cloudy
11:53 PM 39.9 °F 35.8 °F 35.1 °F 83% 29.76 in 10.0 mi SSE 5.8 mph - N/A   Overcast